User: anonymous
Location: Mentone
(34.5413°N, 85.5351°W)
Time: 05:11:08
(UTC-05:00)
Language:

Okean O Rocket - Orbit

View from above orbital plane
View from above orbital plane
View from above satellite
View from above satellite

Ground track
Ground track

The orbit data is extracted from the following two-line orbital elements,

1 25861U 99039B   14241.97342847  .00000244  00000-0  41163-4 0  7131
2 25861 097.9570 199.9561 0017122 135.1882 265.1870 14.77750486814766
Epoch (UTC): 29 August 2014 23:21:44
Eccentricity: 0.0017122
inclination: 97.9570°
perigee height: 624 km
apogee height: 648 km
right ascension of ascending node: 199.9561°
argument of perigee: 135.1882°
revolutions per day: 14.77750486
mean anomaly at epoch: 265.1870°
orbit number at epoch: 81476

The dashed part of the orbit path shows where the satellite is in the earth's shadow,  

DLR